Location: Newark
(45.8833°N, 13.5000°E)
Time: 20:05:46
(UTC+00:00)

X-37B - Pass Details

Date: 04 October 2020
Orbit: 382 x 392 km, 45.0° (Epoch: 15 October)

Event Time Altitude Azimuth Distance (km) Brightness Sun altitude
Rises 17:12:34 0° 215° (SW) 2,257 5.0 -6.5°
Reaches altitude 10° 17:15:01 10° 196° (SSW) 1,404 3.6 -7.0°
Maximum altitude 17:17:18 18° 150° (SSE) 1,009 2.4 -7.4°
Enters shadow 17:19:35 10° 103° (ESE) 1,403 2.8 -7.8°
